Regional Weather Roundup
Issued by NWS

Home | Current Version | Previous Version | Graphics & Text | Print | Product List | Glossary On
Versions: 1 2 3 4 5 6 7 8 9 10 11 12 13 14 15 16 17 18 19 20 21 22 23 24 25 26 27 28 29 30 31 32 33 34 35 36 37 38 39 40 41 42 43 44 45 46 47 48 49 50
000
ASUS43 KBIS 200410
RWRND

NORTH DAKOTA REGIONAL WEATHER ROUNDUP
NATIONAL WEATHER SERVICE BISMARCK ND
1000 PM CST SUN NOV 19 2017

NOTE: "FAIR" INDICATES FEW OR NO CLOUDS BELOW 12,000 FEET WITH NO
SIGNIFICANT WEATHER AND/OR OBSTRUCTIONS TO VISIBILITY.


NDZ001>003-009>011-017-200500-
NORTHWEST NORTH DAKOTA

CITY           SKY/WX    TMP DP  RH WIND       PRES   REMARKS
WILLISTON      CLOUDY    30  21  69 S6        29.56F
MINOT          CLOUDY    39  23  52 S15       29.56F
MINOT AFB      CLOUDY    34  23  64 S12       29.53F
$$

NDZ018>021-031>035-040>046-200500-
SOUTHWEST NORTH DAKOTA

CITY           SKY/WX    TMP DP  RH WIND       PRES   REMARKS
BISMARCK       CLOUDY    30  23  75 CALM      29.67F
DICKINSON      CLOUDY    32  20  61 S12       29.60F
GARRISON         N/A     29  22  75 S5        29.61F
HETTINGER ARPT CLOUDY    27  17  66 W5        29.67F
$$

NDZ004>008-012>016-024-026-027-054-200500-
NORTHEAST NORTH DAKOTA

CITY           SKY/WX    TMP DP  RH WIND       PRES   REMARKS
GRAND FORKS    PTCLDY    17  15  92 CALM      29.70F
GRND FRKS AFB  CLOUDY    15  13  92 CALM      29.70S
DEVILS LAKE    CLOUDY    21  20  96 SE5       29.65F WCI  15
$$

NDZ022-023-025-028>030-036>039-047>053-200500-
SOUTHEAST NORTH DAKOTA

CITY           SKY/WX    TMP DP  RH WIND       PRES   REMARKS
FARGO          CLOUDY    22  18  85 CALM      29.72F
JAMESTOWN      CLOUDY    23  19  85 SW7       29.67F WCI  15
$$





USA.gov is the U.S. government's official web portal to all federal, state and local government web resources and services.